Find Starlink 11599

NORAD ID: 63670 Int'l Des: 2025-085 Owner: SPXS Country: US Constellation: starlink operational
LEOCIRCULAR

現在のビュー

3D地球を読み込み中...

About Starlink 11599

Starlink 11599 (NORAD 63670) is a starlink constellation satellite (v2 mini d2c) launched Apr 28, 2025 by SPXS of US. It operates in LEO, CIRCULAR orbit with a mass of 960.00 kg.

Starlink 11599について

説明を読み込み中...

次回通過

Passes for default location (London). Set your location on the main map for personalized predictions.

高度履歴

Loading altitude history...

軌道要素

1 63670U 25085G 26170.95491278 .00153894 00000-0 11786-2 0 9998
2 63670 43.0012 22.1616 0003554 255.5712 104.4761 15.70879287 66320
Epoch: Jun 19, 2026 • Age: 26 hours

現在のステータス

高度 356.0 km
速度 7.70 km/s
衛星直下点 -5.37°S, 88.31°E
打ち上げ日 Apr 28, 2025
運用期間 1.1 years
タイプ internet

技術仕様

分類 Payload
質量 960.00 kg
乾燥質量 910.00 kg
総質量 960.00 kg
長さ 0.30 m
直径 4.10 m
スパン 29.00 m
形状 Box + pan
製造者 SPXS
バスタイプ Starlink V2MD
フェーズステータス In Orbit
所有者/国 SPXS/US

Most Searched